Location: Cuiabá
(15.6014°S, 56.0979°W)
Time: 03:15:57
(UTC-04:00)

ISS - Visible Passes

Search period start: 02 December 2022 00:00
Search period end: 12 December 2022 00:00
Orbit: 414 x 421 km, 51.6° (Epoch: 02 December)

Date Brightness Start Highest point End Pass type
(mag) Time Alt. Az. Time Alt. Az. Time Alt. Az.
09 Dec -2.9 19:22:25 10° NNW 19:24:35 33° N 19:24:35 33° N visible
10 Dec -2.4 18:35:07 10° N 18:37:39 20° NE 18:40:14 10° ESE visible
10 Dec -0.6 20:12:13 10° W 20:14:18 15° SW 20:16:23 10° S visible
11 Dec -0.3 04:28:19 10° SSE 04:30:13 14° SE 04:32:08 10° E visible
11 Dec -1.7 19:23:10 10° WNW 19:26:11 31° SW 19:29:14 10° SSE visible
